Tracking 31027 objects as of 19-Jul-2025
HD Live streaming from Space Station
objects crossing your sky now

DELTA 1 DEB

Track DELTA 1 DEB now!
10-day predictions


NORAD ID: 10183
Int'l Code: 1977-065M
Perigee: 557.7 km
Apogee: 1,251.1 km
Inclination: 29.2 °
Period: 102.9 minutes
Semi major axis: 7275 km
RCS: 0.111 m2 (medium)
Launch date: July 14, 1977
Source: United States (US)
Launch site: AIR FORCE EASTERN TEST RANGE (AFETR)

Note: This is SATELLITE DEBRIS
Your satellite tracking list
LANDSAT 5
Track 1 satellite(s)




NASA's NSSDC Master Catalog

Two Line Element Set (TLE):
1 10183U 77065M   25199.29611266  .00004874  00000-0  12026-2 0  9993
2 10183  29.2117 188.7418 0476515 288.3831  66.5507 13.99005731363756
Source of the keplerian elements: AFSPC